Regional Weather Roundup
Issued by NWS Charleston, WV

Home | Current Version | Previous Version | Graphics & Text | Print | Product List | Glossary On
Versions: 1 2 3 4 5 6 7 8 9 10 11 12 13 14 15 16 17 18 19 20 21 22 23 24 25 26 27 28 29 30 31 32 33 34 35 36 37 38 39 40 41 42 43 44 45 46 47 48 49 50
000
ASUS41 KRLX 071010
RWRRLX
West Virginia Regional Weather Roundup
National Weather Service Charleston WV
600 AM EDT TUE JUL 07 2015

Note: "fair" indicates few or no clouds below 12,000 feet with no
significant weather and/or obstructions to visibility.

WVZ003-071100-
Northern Panhandle of West Virginia

CITY           SKY/WX    TMP DP  RH WIND       PRES   REMARKS
WHEELING       CLEAR     67  65  93 S8        30.04R FOG
$$

WVZ009-071100-
Northwest West Virginia

CITY           SKY/WX    TMP DP  RH WIND       PRES   REMARKS
PARKERSBURG    CLEAR     68  66  93 CALM      30.07R FOG
$$

WVZ006-071100-
Western West Virginia

CITY           SKY/WX    TMP DP  RH WIND       PRES   REMARKS
HUNTINGTON     CLEAR     68  67  96 S7        30.05S FOG
$$

WVZ015-071100-
West Central West Virginia

CITY           SKY/WX    TMP DP  RH WIND       PRES   REMARKS
CHARLESTON     PTCLDY    65  63  93 CALM      30.08R
$$

WVZ022-031-071100-
North Central West Virginia

CITY           SKY/WX    TMP DP  RH WIND       PRES   REMARKS
CLARKSBURG     MOCLDY    67  65  93 S3        30.08R FOG
MORGANTOWN     PTCLDY    70  64  81 SW3       30.08R
$$

WVZ025-035-042-045-071100-
Southern West Virginia

CITY           SKY/WX    TMP DP  RH WIND       PRES   REMARKS
BECKLEY        CLEAR     63  60  90 SW3       30.18R FOG
LOGAN          FOG       66  66 100 CALM      30.09R VSB<1/4
BLUEFIELD      CLEAR     66  60  81 W7        30.20R
LEWISBURG      FOG       62  60  94 CALM      30.17S VSB 1/4
$$

WVZ047-071100-
Northern Mountains of West Virginia

CITY           SKY/WX    TMP DP  RH WIND       PRES   REMARKS
ELKINS         FOG       61  60  97 CALM      30.14R VSB 1/4
$$

WVZ052-071100-
Eastern Panhandle of West Virginia

CITY           SKY/WX    TMP DP  RH WIND       PRES   REMARKS
MARTINSBURG    CLEAR     69  67  93 CALM      30.05R
PETERSBURG     FOG       67  66  95 CALM      30.09R VSB 1/2
$$


USA.gov is the U.S. government's official web portal to all federal, state and local government web resources and services.